DECAYED

STARLINK-3663, 51976 (Decayed)

Orbit data source: Space-Track

STARLINK-3663, 51976 was a payload satellite owned by SpaceX/Seattle (US) in LEO that was launched on Wed, 09 Mar 2022 UTC via an FALCON 9 launch vehicle from the Air Force Eastern Test Range (AFETR). Payload-class satellites include a variety of spacecraft equipped with specific instruments for various scientific and technological missions. These include communications satellites like Starlink; space stations such as the ISS; scientific satellites like the Hubble; Earth observation satellites from companies like Planet Labs, Umbra, and HawkEye 360; GPS; miniature CubeSats for education and research; and military/defense satellites.

Not visible in the next 10 days
Identifier
51976, 2022-025W
Orbit
Decayed
Country
Flag of USUS
Related business
Manufacturer
SpaceX/Seattle
Mission
Decayed Commercial Communications
Bus & Motor
STARLINK, Unknown motor
Mass
297 kg wet, ~275 kg dry
Launch date (UTC)
2022-03-09 (4 years ago)
Launch vehicle
FALCON 9
Launch site
Air Force Eastern Test Range (AFETR)
Object type
Payload
Rocket body
Debris
Shape & HBR
Box + 1 Pan, 10.1 m
Radar Cross Section
13.562 m², Large (>1 m²)

Expand to show TLE details & history
Last TLE update: 6 months ago

TLE from 6 months ago
0 STARLINK-3663
1 51976U 22025W   25352.21118895  .09375017  12538-4  17444-3 0  9999
2 51976  53.1852 293.8660 0002019 234.5958 125.4905 16.47510515210325
Epoch: 2025-12-18T05:04Z
TLE epoch observation values (Epoch: 2025-12-18T05:04:06.725Z)
Latitude
-0.00003°
Longitude
130.768°
Altitude
147.612 km
Speed
7.818 km/s
True Right ascension
19h 35m 27s
True Declination
0° 00' 00"
Sunlit
Object was in daylight at epoch
Visualization orbit readout
Latitude
Unknown
Longitude
Unknown
Altitude
Unknown
Speed
Unknown
Apparent Right ascension
Unknown
Apparent Declination
Unknown
Sunlit
N/A
Visualization observer readout
Local Sidereal Time
21:54:58
Azimuth
Unknown
Elevation
Unknown
Doppler factor
Unknown
Orbital elements
Apogee altitude
147.481 km
Perigee altitude
144.847 km
Semi-major axis
6,524.301 km
Eccentricity
0.0002
Inclination
53.1852°
RAAN
293.866°
Arg. of periapsis
234.5958°
True anomaly
125.50933°
Mean anomaly
125.4905°
Eccentric anomaly
125.49992°
Mean motion
4.11853 °/min
Orbital period
87.41 mins
BSTAR
0.00017444
Loading maneuver chart data...
Computing Atmospheric mass density...
Loading historical data...
Loading historical data...
Loading historical data...
Loading historical data...
Loading historical data...
Loading historical data...
Loading historical data...

Documentation

Showing up to 5 results
|